User: anonymous   Login
Location: Santa Barbara
(34.4500°N, 119.7700°W)
Time: 03:29:08
(UTC-08:00)
Language:

Cosmos 1892 Rocket - Orbit

View from above orbital plane
View from above orbital plane
View from above satellite
View from above satellite

Ground track
Ground track

The orbit data is extracted from the following two-line orbital elements,

1 18422U 87088B   14351.48536795  .00000743  00000-0  89261-4 0  4336
2 18422 082.5126 311.9397 0019522 200.1104 299.6321 14.82553546466565
Epoch (UTC): 17 December 2014 11:38:55
Eccentricity: 0.0019522
inclination: 82.5126°
perigee height: 607 km
apogee height: 635 km
right ascension of ascending node: 311.9397°
argument of perigee: 200.1104°
revolutions per day: 14.82553546
mean anomaly at epoch: 299.6321°
orbit number at epoch: 46656

The dashed part of the orbit path shows where the satellite is in the earth's shadow,  

DLR